Location: ???????
(55.4362°N, 38.1183°E)
Time: 15:04:49
(UTC+00:00)

Oscar 11 - Pass Details

Date: 11 December 2021
Orbit: 611 x 625 km, 97.6° (Epoch: 25 January)

Event Time Altitude Azimuth Distance (km) Brightness Sun altitude
Rises 14:39:31 0° 193° (SSW) 2,902 11.0 -13.2°
Reaches altitude 10° 14:41:56 10° 204° (SSW) 2,000 10.3 -13.5°
Maximum altitude 14:45:46 30° 266° (W) 1,138 9.2 -14.0°
Drops below altitude 10° 14:49:38 10° 328° (NNW) 2,013 9.8 -14.6°
Sets 14:52:04 0° 339° (NNW) 2,924 10.5 -14.9°
